Miscellaneous Local Product
Issued by NWS North Platte, NE

Home | Current Version | Previous Version | Text Only | Print | Product List | Glossary On
Versions: 1 2 3 4 5 6 7 8 9 10 11 12 13 14 15 16 17 18 19 20 21 22 23 24 25 26 27 28 29 30 31 32 33 34 35 36 37 38 39 40 41 42 43 44 45 46 47 48 49 50
000
AXUS43 KLBF 240810
MISLBF


WESTERN AND NORTH CENTRAL NEBRASKA HOURLY WEATHER ROUNDUP
NATIONAL WEATHER SERVICE NORTH PLATTE NE
200 AM CST SAT JAN 24 2015

***STATIONS NOT REPORTING VARIABLES SUCH AS SKY/WEATHER OR
PRESSURE ARE PROVIDED BY THE NEBRASKA DEPARTMENT OF
ROADS...RAWS...AND APRS NETWORKS...AND ARE NOT UNDER
NATIONAL WEATHER SERVICE QUALITY CONTROL***

...OBSERVATIONS IN AND NEAR THE EASTERN PANHANDLE OF NEBRASKA...

CITY           SKY/WX    TMP DP  RH WIND       PRES   REMARKS
PINE RIDGE     CLEAR     30  24  78 SW10      30.06F WCI  21
CHADRON        PTCLDY    30  23  75 W10       30.08F WCI  21
ALLIANCE       CLEAR     26  23  88 W10       30.07F WCI  16
SIDNEY         CLEAR     31  21  66 W14       30.11F WCI  21
$$

...OBSERVATIONS IN NORTH CENTRAL NEBRASKA...

CITY           SKY/WX    TMP DP  RH WIND       PRES   REMARKS
VALENTINE      CLEAR     30  26  85 W8        30.00F WCI  22
THEDFORD       MOCLDY    34  29  83 W10       30.03F WCI  26
AINSWORTH      CLEAR     34  28  80 W12       29.99F WCI  25
O`NEILL        CLEAR     36  30  80 W10       29.97S WCI  28
ORD            CLEAR     31  25  78 NW8       30.00F WCI  23
BROKEN BOW     CLEAR     38  28  67 W17       30.02F WCI  28
$$

...OBSERVATIONS IN SOUTHWEST NEBRASKA AND FAR NORTHEAST COLORADO...

CITY           SKY/WX    TMP DP  RH WIND       PRES   REMARKS
WRAY           FAIR      30  26  84 SW8       30.15F WCI  22
HOLYOKE        FAIR      34  27  75 W13       30.13F WCI  25
IMPERIAL       CLEAR     33  23  66 W13       30.12F WCI  24
OGALLALA       CLEAR     28  25  89 W6        30.09F WCI  21
NORTH PLATTE   CLEAR     22  20  92 NW7       30.07F WCI  13
MCCOOK         CLEAR     31  25  78 SW9       30.11F WCI  23
LEXINGTON      CLEAR     31  28  85 W13       30.06F WCI  22
$$

...NORTH PLATTE AREA...

CITY           SKY/WX    TMP DP  RH WIND       PRES   REMARKS
AIRPORT        CLEAR     22  20  92 NW7       30.07F WCI  13
$$

...SOME WEATHER OBSERVATIONS FROM AROUND THE REGION...

CITY           SKY/WX    TMP DP  RH WIND       PRES   REMARKS
DENVER         CLEAR     32  22  66 SW14      30.19F WCI  22
LARAMIE        CLEAR     14   9  80 S10       30.16F WCI   1
CHEYENNE       CLEAR     32  15  49 W21       30.10F WCI  20
SCOTTSBLUFF    CLEAR     27  22  81 CALM      30.11F
RAPID CITY     PTCLDY    32  21  64 W8        29.99F WCI  25
PIERRE         CLEAR     32  27  81 SW9       29.92F WCI  24
WINNER         FAIR      38  27  64 W9        29.96F WCI  31
SIOUX FALLS    CLEAR     31  27  85 S3        29.88F
OMAHA          CLEAR     29  28  96 NW7       29.95F WCI  22
GRAND ISLAND   CLEAR     31  27  85 W12       30.02F WCI  22
KANSAS CITY    CLEAR     33  22  63 NW9       29.95R WCI  25
WICHITA        CLEAR     37  26  64 NW10      30.05S WCI  30
HAYS           CLEAR     36  21  55 NW13      30.10F WCI  27
LIBERAL        CLEAR     34  25  69 NW12      30.20S WCI  25
GOODLAND       CLEAR     32  25  75 W12       30.16F WCI  23
$$



USA.gov is the U.S. government's official web portal to all federal, state and local government web resources and services.